This is the latest recevied weather packets stored in our database for station/object WX5KDM. If no packets are shown the sender has not sent any weather packets the latest 10 day(s).
| Time | Temp. | Humidity | Pressure | Rain* | Wind** | Luminosity | Snow |
|---|---|---|---|---|---|---|---|
| 1778241937 | 12.22° C | 96% | 1018.2 hPa | 0 mm | - | - | - |
| 1778241636 | 11.67° C | 96% | 1018.2 hPa | 0 mm | - | - | - |
| 1778241333 | 11.11° C | 98% | 1017.9 hPa | 0 mm | - | - | - |
| 1778241029 | 11.11° C | 98% | 1017.9 hPa | 0 mm | - | - | - |
| 1778240726 | 10.56° C | 98% | 1017.7 hPa | 0 mm | - | - | - |
| 1778240423 | 10° C | 99% | 1017.7 hPa | 0 mm | - | - | - |
| 1778240120 | 9.44° C | 99% | 1017.7 hPa | 0 mm | - | - | - |
| 1778239818 | 8.89° C | 99% | 1017.7 hPa | 0 mm | - | - | - |
| 1778239514 | 8.33° C | 99% | 1017.6 hPa | 0 mm | - | - | - |
| 1778239211 | 8.33° C | 99% | 1017.8 hPa | 0 mm | - | - | - |
| 1778238908 | 7.78° C | 99% | 1017.7 hPa | 0 mm | - | - | - |
| 1778238605 | 7.78° C | 99% | 1017.8 hPa | 0 mm | - | - | - |
| 1778238303 | 7.78° C | 99% | 1017.8 hPa | 0 mm | - | - | - |
| 1778238002 | 7.78° C | 99% | 1017.5 hPa | 0 mm | - | - | - |
| 1778237698 | 7.78° C | 98% | 1017.5 hPa | 0 mm | - | - | - |
| 1778237396 | 7.78° C | 98% | 1017.4 hPa | 0 mm | - | - | - |
| 1778237093 | 7.78° C | 98% | 1017.3 hPa | 0 mm | - | - | - |
| 1778236790 | 7.78° C | 98% | 1017.3 hPa | 0 mm | - | - | - |
| 1778236488 | 7.78° C | 98% | 1017.4 hPa | 0 mm | - | - | - |
| 1778236184 | 8.33° C | 98% | 1017.2 hPa | 0 mm | - | - | - |
| 1778235883 | 8.33° C | 98% | 1017.4 hPa | 0 mm | - | - | - |
| 1778235580 | 8.33° C | 98% | 1017.1 hPa | 0 mm | - | - | - |
| 1778235277 | 8.33° C | 98% | 1016.9 hPa | 0 mm | - | - | - |
| 1778234974 | 8.33° C | 98% | 1017.2 hPa | 0 mm | - | - | - |
| 1778234672 | 8.33° C | 98% | 1017 hPa | 0 mm | - | - | - |
* Rain latest hour (hover to see other rain measurements)
** Current wind speed in m/s (hover to see current wind gust speed)